Location: Bailleul
(50.3375°N, 2.8513°E)
Time: 10:51:21
(UTC+00:00)

USA 215 - Pass Details

Date: 19 April 2021
Orbit: 1101 x 1107 km, 123.0° (Epoch: 02 May)

Event Time Altitude Azimuth Distance (km) Brightness Sun altitude
Exits shadow 21:48:19 34° 187° (S) 1,724 3.9 -22.9°
Maximum altitude 21:50:17 42° 225° (SW) 1,521 3.8 -23.1°
Drops below altitude 10° 21:56:26 10° 295° (WNW) 2,964 6.2 -23.6°
Sets 21:59:06 0° 303° (WNW) 3,925 7.2 -23.8°
